Flag for USA

Past Weather in Wausau, Wisconsin, USA — Yesterday and Last 2 Weeks

Now
58 °F

Sunny.


Feels Like: 58 °F
Forecast: 62 / 50 °F
Wind: 5 mph from Southwest

Location: Wausau Downtown Airport
Current Time: Sep 27, 2020 at 11:57:42 am
Latest Report: Sep 27, 2020 at 10:54 am
Visibility: 10 mi
Pressure29.66 "Hg
Humidity: 97%
Dew Point: 57 °F
Location of WausauLocation

Past Weather in Wausau — Graph

°F

Wausau Temperature Yesterday

Maximum temperature yesterday: 70 °F (at 12:54 pm)
Minimum temperature yesterday: 61 °F (at 6:54 am)
Average temperature yesterday: 67 °F

High & Low Weather Summary for the Past Weeks

 TemperatureHumidityPressure
High80 °F (Sep 23, 2:54 pm)100% (Sep 12, 10:21 am)30.47 "Hg (Sep 12, 10:21 am)
Low34 °F (Sep 18, 6:54 am)33% (Sep 18, 3:54 pm)29.44 "Hg (Sep 26, 11:54 pm)
Average59 °F80%30.04 "Hg
* Reported Sep 12 10:21 am — Sep 27 10:54 am, Wausau. Weather by CustomWeather, © 2020

Note: Actual official high and low records may vary slightly from our data, if they occured in-between our weather recording intervals... More about our weather records

Wausau Weather History for the Previous 24 Hours

Scroll right to see more
 ConditionsComfort  
Time TempWeatherWind HumidityBarometerVisibility
10:54 am
Sun, Sep 27
58 °FSunny.5 mph97%29.66 "Hg10 mi
10:27 am57 °FPassing clouds.5 mph96%29.66 "Hg10 mi
9:54 am56 °FLow clouds.3 mph100%29.67 "Hg10 mi
9:28 am56 °FPartly sunny.3 mph100%29.66 "Hg10 mi
8:54 am55 °FScattered clouds.6 mph100%29.65 "Hg10 mi
7:54 am54 °FPassing clouds.5 mph100%29.65 "Hg10 mi
7:30 am54 °FScattered clouds.6 mph100%29.65 "Hg10 mi
6:54 am54 °FPartly sunny.7 mph100%29.65 "Hg10 mi
6:13 am55 °FPassing clouds.7 mph100%29.62 "Hg10 mi
6:02 am55 °FPassing clouds.7 mph100%29.62 "Hg10 mi
5:32 am56 °FLow clouds.9 mph100%29.63 "Hg10 mi
4:54 am57 °FPassing clouds.8 mph96%29.60 "Hg10 mi
4:35 am57 °FOvercast.10 mph100%29.58 "Hg10 mi
3:54 am57 °FLight rain. Low clouds.10 mph100%29.57 "Hg10 mi
3:34 am57 °FLight rain. Low clouds.17 mph100%29.55 "Hg10 mi
3:08 am59 °FLight rain. Overcast.14 mph100%29.53 "Hg10 mi
2:19 am63 °FLight rain. Passing clouds.14 mph100%29.50 "Hg10 mi
1:54 am66 °FLight rain. Mostly cloudy.15 mph100%29.49 "Hg10 mi
12:54 am68 °FPassing clouds.12 mph93%29.45 "Hg10 mi
11:54 pm
Sat, Sep 26
68 °FClear.10 mph93%29.44 "Hg10 mi
10:54 pm68 °FClear.12 mph96%29.44 "Hg10 mi
9:54 pm68 °FPassing clouds.9 mph100%29.46 "Hg10 mi
8:54 pm68 °FPassing clouds.9 mph100%29.48 "Hg10 mi
7:54 pm68 °FMostly cloudy.9 mph100%29.49 "Hg10 mi
6:54 pm68 °FLight rain. Overcast.3 mph100%29.50 "Hg10 mi
5:54 pm68 °FMostly cloudy.7 mph100%29.52 "Hg10 mi
4:54 pm70 °FPartly sunny.14 mphN/A29.49 "Hg10 mi
4:38 pm70 °FPartly sunny.14 mphN/A29.50 "Hg10 mi
3:54 pm70 °FLight rain. More clouds than sun.7 mphN/A29.58 "Hg10 mi
3:10 pm70 °FPartly sunny.9 mphN/A29.56 "Hg10 mi
3:00 pm68 °FThunderstorms. Fog.5 mph93%29.58 "Hg3 mi
1:54 pm70 °FScattered clouds.9 mph79%29.62 "Hg10 mi
12:54 pm70 °FSunny.6 mph79%29.64 "Hg10 mi
11:54 am69 °FPassing clouds.No wind79%29.67 "Hg10 mi
Weather by CustomWeather, © 2020

See weather overview